IGO452Y VEBN-VABB

Flight info

Callsign IGO452Y
Flight time 1h 59m
Altitude 36000
Route BBN G590 BPL Z3 AKTIV IGBAN2B
Aircraft A20N/M-SDE2E3FGHIRWXY/LB1

Departure

Time 2026-04-27 02:54
Airport Lal Bahadur Shastri International Airport (VEBN)

Arrival

Time 2026-04-27 04:53
Airport Chhatrapati Shivaji Maharaj International Airport (VABB)
Time Latitude Longitude Altitude Speed Heading
2026-04-27 02:47 25.44952 82.85632 280 ft 0 kts 186°
2026-04-27 02:48 25.44953 82.85632 280 ft 2 kts 186°
2026-04-27 02:48 25.44975 82.85634 283 ft 2 kts 186°
2026-04-27 02:49 25.44991 82.85636 285 ft 2 kts 186°
2026-04-27 02:49 25.45003 82.85638 282 ft 2 kts 188°
2026-04-27 02:49 25.45019 82.85641 285 ft 2 kts 195°
2026-04-27 02:49 25.45033 82.85650 287 ft 2 kts 252°
2026-04-27 02:50 25.45034 82.85659 280 ft 0 kts 271°
2026-04-27 02:51 25.45034 82.85642 284 ft 8 kts 272°
2026-04-27 02:52 25.45040 82.85562 280 ft 8 kts 290°
2026-04-27 02:52 25.45096 82.85542 280 ft 10 kts
2026-04-27 02:52 25.45141 82.85544 280 ft 0 kts
2026-04-27 02:53 25.45164 82.85545 282 ft 11 kts
2026-04-27 02:53 25.45240 82.85569 280 ft 6 kts 57°
2026-04-27 02:53 25.45242 82.85587 282 ft 0 kts 94°
2026-04-27 02:53 25.45236 82.85689 284 ft 40 kts 94°
2026-04-27 02:54 25.45205 82.86220 280 ft 95 kts 91°
2026-04-27 02:54 25.45163 82.87146 283 ft 143 kts 93°
2026-04-27 02:54 25.45107 82.88211 729 ft 136 kts 93°
2026-04-27 02:54 25.45016 82.89280 959 ft 146 kts 107°
2026-04-27 02:55 25.44393 82.90146 1274 ft 150 kts 146°
2026-04-27 02:55 25.43405 82.90490 1639 ft 158 kts 185°
2026-04-27 02:55 25.42351 82.89925 1848 ft 185 kts 227°
2026-04-27 02:55 25.41799 82.88568 2100 ft 205 kts 263°
2026-04-27 02:56 25.41816 82.86915 2345 ft 228 kts 275°
2026-04-27 02:56 25.41985 82.85077 2560 ft 250 kts 277°
2026-04-27 02:56 25.42165 82.83150 3055 ft 257 kts 277°
2026-04-27 02:56 25.42335 82.81170 3635 ft 259 kts 277°
2026-04-27 02:57 25.42489 82.79193 4297 ft 258 kts 278°
2026-04-27 02:57 25.42667 82.77213 4948 ft 258 kts 278°
2026-04-27 02:57 25.42770 82.75241 5572 ft 260 kts 274°
2026-04-27 02:57 25.42729 82.73241 6249 ft 260 kts 270°
2026-04-27 02:58 25.42533 82.71253 6892 ft 260 kts 265°
2026-04-27 02:58 25.42219 82.69273 7520 ft 263 kts 263°
2026-04-27 02:58 25.41833 82.67317 8168 ft 264 kts 261°
2026-04-27 02:58 25.41403 82.65337 8852 ft 265 kts 261°
2026-04-27 02:59 25.40960 82.63357 9537 ft 266 kts 261°
2026-04-27 02:59 25.40511 82.61351 10029 ft 274 kts 261°
2026-04-27 02:59 25.40051 82.59240 10269 ft 290 kts 261°
2026-04-27 02:59 25.39580 82.57006 10471 ft 307 kts 261°
2026-04-27 03:00 25.39093 82.54655 10779 ft 317 kts 261°
2026-04-27 03:00 25.38600 82.52254 11232 ft 323 kts 261°
2026-04-27 03:00 25.38098 82.49827 11751 ft 326 kts 261°
2026-04-27 03:00 25.37587 82.47374 12291 ft 329 kts 261°
2026-04-27 03:01 25.37066 82.44891 12827 ft 332 kts 260°
2026-04-27 03:01 25.36541 82.42402 13393 ft 334 kts 260°
2026-04-27 03:01 25.36013 82.39916 13916 ft 338 kts 260°
2026-04-27 03:01 25.35471 82.37365 14397 ft 342 kts 260°
2026-04-27 03:02 25.34922 82.34787 14892 ft 346 kts 260°
2026-04-27 03:02 25.34368 82.32189 15387 ft 350 kts 260°
2026-04-27 03:02 25.33805 82.29554 15884 ft 354 kts 259°
2026-04-27 03:02 25.33236 82.26892 16366 ft 358 kts 259°
2026-04-27 03:03 25.32653 82.24198 16845 ft 362 kts 259°
2026-04-27 03:03 25.31442 82.18765 17759 ft 369 kts 258°
2026-04-27 03:03 25.30819 82.16001 18169 ft 373 kts 258°
2026-04-27 03:04 25.30188 82.13211 18592 ft 375 kts 258°
2026-04-27 03:04 25.29555 82.10409 18995 ft 377 kts 258°
2026-04-27 03:04 25.28920 82.07595 19406 ft 379 kts 258°
2026-04-27 03:04 25.28278 82.04756 19833 ft 382 kts 258°
2026-04-27 03:05 25.27634 82.01899 20249 ft 384 kts 258°
2026-04-27 03:05 25.26984 81.99022 20677 ft 386 kts 258°
2026-04-27 03:05 25.26332 81.96136 21098 ft 389 kts 258°
2026-04-27 03:05 25.25676 81.93233 21539 ft 391 kts 258°
2026-04-27 03:06 25.25013 81.90303 21968 ft 394 kts 258°
2026-04-27 03:06 25.24355 81.87396 22392 ft 396 kts 258°
2026-04-27 03:06 25.23682 81.84427 22807 ft 399 kts 258°
2026-04-27 03:06 25.23004 81.81439 23230 ft 402 kts 258°
2026-04-27 03:07 25.22323 81.78439 23584 ft 404 kts 258°
2026-04-27 03:07 25.21635 81.75415 23937 ft 407 kts 258°
2026-04-27 03:07 25.20945 81.72383 24299 ft 409 kts 258°
2026-04-27 03:07 25.20248 81.69327 24644 ft 410 kts 258°
2026-04-27 03:08 25.19550 81.66266 24987 ft 412 kts 258°
2026-04-27 03:08 25.18849 81.63197 25326 ft 414 kts 258°
2026-04-27 03:08 25.18142 81.60105 25658 ft 416 kts 258°
2026-04-27 03:08 25.17431 81.57000 25973 ft 418 kts 258°
2026-04-27 03:09 25.16717 81.53882 26290 ft 420 kts 258°
2026-04-27 03:09 25.16001 81.50760 26605 ft 421 kts 258°
2026-04-27 03:09 25.15288 81.47655 26917 ft 423 kts 258°
2026-04-27 03:09 25.14563 81.44495 27215 ft 425 kts 258°
2026-04-27 03:10 25.13846 81.41322 27519 ft 427 kts 258°
2026-04-27 03:10 25.13138 81.38138 27814 ft 429 kts 258°
2026-04-27 03:10 25.12431 81.34932 28100 ft 430 kts 258°
2026-04-27 03:10 25.11725 81.31715 28377 ft 432 kts 258°
2026-04-27 03:11 25.11019 81.28496 28658 ft 434 kts 258°
2026-04-27 03:11 25.10306 81.25252 28923 ft 435 kts 258°
2026-04-27 03:11 25.09590 81.21996 29203 ft 437 kts 258°
2026-04-27 03:11 25.08869 81.18727 29464 ft 439 kts 258°
2026-04-27 03:12 25.08146 81.15450 29724 ft 440 kts 258°
2026-04-27 03:12 25.07418 81.12166 30024 ft 440 kts 258°
2026-04-27 03:12 25.06691 81.08888 30333 ft 439 kts 258°
2026-04-27 03:12 25.05972 81.05660 30633 ft 438 kts 258°
2026-04-27 03:13 25.05235 81.02363 30942 ft 438 kts 258°
2026-04-27 03:13 25.04506 80.99104 31237 ft 437 kts 258°
2026-04-27 03:13 25.03786 80.95893 31544 ft 436 kts 258°
2026-04-27 03:13 25.03057 80.92643 31838 ft 436 kts 258°
2026-04-27 03:14 25.02333 80.89409 32134 ft 435 kts 258°
2026-04-27 03:14 25.01614 80.86169 32424 ft 434 kts 258°
2026-04-27 03:14 25.00901 80.82931 32703 ft 434 kts 258°
2026-04-27 03:14 25.00192 80.79708 32977 ft 433 kts 258°
2026-04-27 03:15 24.99482 80.76478 33250 ft 433 kts 258°
2026-04-27 03:15 24.98774 80.73253 33521 ft 432 kts 258°
2026-04-27 03:15 24.98065 80.70034 33771 ft 431 kts 258°
2026-04-27 03:15 24.97356 80.66819 33983 ft 431 kts 258°
2026-04-27 03:16 24.96649 80.63612 34227 ft 429 kts 258°
2026-04-27 03:16 24.95944 80.60418 34482 ft 428 kts 258°
2026-04-27 03:16 24.95243 80.57246 34722 ft 426 kts 258°
2026-04-27 03:16 24.94543 80.54074 34952 ft 425 kts 258°
2026-04-27 03:17 24.93853 80.50955 35178 ft 424 kts 258°
2026-04-27 03:17 24.93156 80.47807 35394 ft 422 kts 258°
2026-04-27 03:17 24.92454 80.44632 35599 ft 421 kts 258°
2026-04-27 03:18 24.91071 80.38394 35697 ft 421 kts 258°
2026-04-27 03:18 24.89682 80.32144 35702 ft 419 kts 257°
2026-04-27 03:19 24.88292 80.25903 35707 ft 419 kts 257°
2026-04-27 03:19 24.86902 80.19672 35706 ft 420 kts 257°
2026-04-27 03:20 24.85506 80.13423 35717 ft 420 kts 257°
2026-04-27 03:20 24.84108 80.07182 35717 ft 420 kts 257°
2026-04-27 03:21 24.82705 80.00928 35721 ft 420 kts 257°
2026-04-27 03:21 24.81304 79.94715 35720 ft 421 kts 255°
2026-04-27 03:22 24.79017 79.88746 35720 ft 423 kts 242°
2026-04-27 03:22 24.75938 79.83256 35717 ft 425 kts 239°
2026-04-27 03:23 24.72700 79.77807 35717 ft 425 kts 239°
2026-04-27 03:23 24.69485 79.72351 35715 ft 425 kts 239°
2026-04-27 03:24 24.66299 79.66860 35711 ft 425 kts 239°
2026-04-27 03:24 24.63135 79.61365 35719 ft 426 kts 239°
2026-04-27 03:25 24.59969 79.55858 35718 ft 426 kts 239°
2026-04-27 03:25 24.56825 79.50397 35716 ft 426 kts 239°
2026-04-27 03:26 24.53651 79.44892 35709 ft 426 kts 239°
2026-04-27 03:26 24.50478 79.39398 35720 ft 426 kts 239°
2026-04-27 03:27 24.47296 79.33896 35719 ft 426 kts 239°
2026-04-27 03:27 24.44118 79.28407 35720 ft 426 kts 239°
2026-04-27 03:28 24.40930 79.22907 35721 ft 426 kts 239°
2026-04-27 03:28 24.37743 79.17414 35725 ft 426 kts 239°
2026-04-27 03:29 24.34578 79.11967 35726 ft 426 kts 239°
2026-04-27 03:29 24.31388 79.06481 35725 ft 426 kts 239°
2026-04-27 03:30 24.28195 79.00999 35730 ft 426 kts 239°
2026-04-27 03:30 24.25006 78.95529 35732 ft 426 kts 238°
2026-04-27 03:31 24.21810 78.90053 35738 ft 426 kts 238°
2026-04-27 03:31 24.18606 78.84570 35741 ft 426 kts 238°
2026-04-27 03:32 24.15428 78.79137 35747 ft 426 kts 238°
2026-04-27 03:32 24.12228 78.73673 35747 ft 426 kts 238°
2026-04-27 03:33 24.09026 78.68211 35755 ft 425 kts 238°
2026-04-27 03:33 24.05847 78.62796 35759 ft 425 kts 238°
2026-04-27 03:34 24.02645 78.57347 35761 ft 425 kts 238°
2026-04-27 03:34 23.99441 78.51910 35762 ft 425 kts 238°
2026-04-27 03:35 23.96225 78.46490 35765 ft 425 kts 238°
2026-04-27 03:35 23.93001 78.41072 35771 ft 424 kts 238°
2026-04-27 03:36 23.89795 78.35691 35771 ft 424 kts 238°
2026-04-27 03:36 23.86575 78.30289 35774 ft 424 kts 238°
2026-04-27 03:37 23.83346 78.24879 35774 ft 424 kts 238°
2026-04-27 03:37 23.80670 78.20399 35773 ft 423 kts 238°
2026-04-27 03:38 23.77446 78.15009 35777 ft 423 kts 238°
2026-04-27 03:38 23.74229 78.09635 35774 ft 423 kts 238°
2026-04-27 03:39 23.71009 78.04263 35778 ft 422 kts 238°
2026-04-27 03:39 23.67814 77.98937 35778 ft 422 kts 238°
2026-04-27 03:40 23.64596 77.93578 35782 ft 421 kts 238°
2026-04-27 03:40 23.61387 77.88241 35782 ft 421 kts 238°
2026-04-27 03:41 23.58181 77.82914 35785 ft 420 kts 238°
2026-04-27 03:41 23.54970 77.77584 35786 ft 420 kts 238°
2026-04-27 03:42 23.51758 77.72259 35789 ft 420 kts 238°
2026-04-27 03:42 23.48543 77.66933 35791 ft 419 kts 238°
2026-04-27 03:43 23.45334 77.61623 35805 ft 419 kts 238°
2026-04-27 03:43 23.42151 77.56361 35821 ft 419 kts 238°
2026-04-27 03:44 23.38938 77.51054 35838 ft 418 kts 238°
2026-04-27 03:44 23.35732 77.45766 35846 ft 418 kts 238°
2026-04-27 03:45 23.32529 77.40488 35858 ft 417 kts 238°
2026-04-27 03:45 23.29365 77.35247 35853 ft 416 kts 240°
2026-04-27 03:46 23.26780 77.29649 35857 ft 412 kts 247°
2026-04-27 03:46 23.24575 77.23914 35859 ft 410 kts 249°
2026-04-27 03:47 23.22487 77.18174 35849 ft 410 kts 249°
2026-04-27 03:47 23.20395 77.12405 35838 ft 409 kts 249°
2026-04-27 03:48 23.18287 77.06640 35834 ft 409 kts 249°
2026-04-27 03:48 23.16174 77.00905 35829 ft 409 kts 249°
2026-04-27 03:49 23.14078 76.95201 35824 ft 408 kts 249°
2026-04-27 03:49 23.11989 76.89459 35827 ft 408 kts 249°
2026-04-27 03:50 23.09905 76.83719 35831 ft 408 kts 249°
2026-04-27 03:50 23.07819 76.77982 35830 ft 408 kts 249°
2026-04-27 03:51 23.05740 76.72274 35829 ft 407 kts 249°
2026-04-27 03:51 23.03654 76.66557 35833 ft 407 kts 249°
2026-04-27 03:52 23.01568 76.60846 35841 ft 407 kts 249°
2026-04-27 03:52 22.99479 76.55138 35839 ft 407 kts 249°
2026-04-27 03:53 22.97388 76.49430 35846 ft 407 kts 249°
2026-04-27 03:53 22.95306 76.43756 35841 ft 406 kts 249°
2026-04-27 03:54 22.93210 76.38048 35850 ft 406 kts 249°
2026-04-27 03:54 22.91112 76.32345 35855 ft 406 kts 249°
2026-04-27 03:55 22.89029 76.26687 35857 ft 406 kts 249°
2026-04-27 03:55 22.86933 76.21001 35850 ft 406 kts 249°
2026-04-27 03:56 22.84830 76.15304 35860 ft 406 kts 249°
2026-04-27 03:56 22.82727 76.09615 35874 ft 406 kts 249°
2026-04-27 03:57 22.80636 76.03967 35884 ft 405 kts 249°
2026-04-27 03:57 22.78534 75.98296 35898 ft 405 kts 249°
2026-04-27 03:58 22.76432 75.92630 35907 ft 405 kts 249°
2026-04-27 03:58 22.74327 75.86964 35912 ft 405 kts 249°
2026-04-27 03:59 22.72234 75.81337 35910 ft 405 kts 249°
2026-04-27 03:59 22.70149 75.75670 35913 ft 405 kts 249°
2026-04-27 04:00 22.68131 75.69976 35910 ft 405 kts 250°
2026-04-27 04:00 22.66135 75.64270 35903 ft 404 kts 250°
2026-04-27 04:01 22.64149 75.58600 35891 ft 404 kts 250°
2026-04-27 04:01 22.62148 75.52905 35884 ft 404 kts 249°
2026-04-27 04:02 22.59740 75.47419 35872 ft 405 kts 238°
2026-04-27 04:02 22.55990 75.42864 35866 ft 407 kts 225°
2026-04-27 04:03 22.51709 75.38873 35863 ft 409 kts 223°
2026-04-27 04:03 22.47355 75.34923 35860 ft 407 kts 223°
2026-04-27 04:04 22.43070 75.30935 35857 ft 406 kts 224°
2026-04-27 04:04 22.38830 75.26908 35854 ft 404 kts 224°
2026-04-27 04:05 22.34643 75.22900 35855 ft 403 kts 225°
2026-04-27 04:05 22.30442 75.18878 35849 ft 403 kts 225°
2026-04-27 04:06 22.26252 75.14872 35848 ft 402 kts 225°
2026-04-27 04:06 22.22066 75.10878 35849 ft 401 kts 225°
2026-04-27 04:07 22.15820 75.04925 35849 ft 399 kts 225°
2026-04-27 04:07 22.11657 75.00961 35849 ft 398 kts 225°
2026-04-27 04:08 22.07504 74.97009 35847 ft 398 kts 225°
2026-04-27 04:08 22.03389 74.93097 35849 ft 397 kts 225°
2026-04-27 04:09 21.99232 74.89148 35852 ft 397 kts 225°
2026-04-27 04:09 21.95114 74.85239 35857 ft 396 kts 225°
2026-04-27 04:10 21.90982 74.81321 35852 ft 395 kts 225°
2026-04-27 04:10 21.86852 74.77407 35851 ft 394 kts 225°
2026-04-27 04:11 21.82727 74.73502 35852 ft 394 kts 225°
2026-04-27 04:11 21.78611 74.69607 35857 ft 393 kts 225°
2026-04-27 04:12 21.74528 74.65748 35854 ft 393 kts 225°
2026-04-27 04:12 21.70426 74.61872 35855 ft 392 kts 225°
2026-04-27 04:13 21.66319 74.57993 35855 ft 392 kts 225°
2026-04-27 04:13 21.62215 74.54122 35853 ft 392 kts 225°
2026-04-27 04:14 21.58110 74.50252 35853 ft 392 kts 225°
2026-04-27 04:14 21.54003 74.46385 35855 ft 392 kts 225°
2026-04-27 04:15 21.49928 74.42550 35855 ft 392 kts 225°
2026-04-27 04:15 21.45835 74.38701 35856 ft 391 kts 225°
2026-04-27 04:16 21.41727 74.34841 35855 ft 391 kts 225°
2026-04-27 04:16 21.37652 74.31014 35859 ft 391 kts 225°
2026-04-27 04:17 21.33551 74.27166 35859 ft 391 kts 225°
2026-04-27 04:17 21.29484 74.23273 35860 ft 391 kts 225°
2026-04-27 04:18 21.25406 74.19397 35861 ft 391 kts 225°
2026-04-27 04:18 21.21342 74.15571 35862 ft 391 kts 224°
2026-04-27 04:19 21.17240 74.11725 35865 ft 391 kts 224°
2026-04-27 04:19 21.13127 74.07877 35873 ft 391 kts 224°
2026-04-27 04:20 21.09044 74.04061 35872 ft 391 kts 224°
2026-04-27 04:20 21.04937 74.00224 35874 ft 391 kts 224°
2026-04-27 04:21 21.00825 73.96386 35878 ft 391 kts 224°
2026-04-27 04:21 20.96736 73.92573 35881 ft 391 kts 224°
2026-04-27 04:22 20.92623 73.88741 35879 ft 391 kts 224°
2026-04-27 04:22 20.88512 73.84914 35879 ft 391 kts 224°
2026-04-27 04:23 20.84428 73.81113 35884 ft 391 kts 224°
2026-04-27 04:23 20.80322 73.77296 35876 ft 391 kts 224°
2026-04-27 04:24 20.76904 73.74122 35883 ft 391 kts 224°
2026-04-27 04:24 20.72771 73.70283 35883 ft 395 kts 224°
2026-04-27 04:25 20.68623 73.66436 35882 ft 393 kts 224°
2026-04-27 04:25 20.63840 73.62004 35882 ft 391 kts 224°
2026-04-27 04:26 20.60423 73.58838 35885 ft 391 kts 224°
2026-04-27 04:26 20.56304 73.55023 35885 ft 391 kts 224°
2026-04-27 04:27 20.52190 73.51219 35885 ft 391 kts 224°
2026-04-27 04:27 20.48072 73.47412 35883 ft 393 kts 224°
2026-04-27 04:28 20.43917 73.43575 35886 ft 396 kts 224°
2026-04-27 04:28 20.39772 73.39751 35888 ft 396 kts 224°
2026-04-27 04:29 20.35606 73.35910 35880 ft 396 kts 224°
2026-04-27 04:29 20.33516 73.33984 35776 ft 396 kts 224°
2026-04-27 04:29 20.31438 73.32070 35231 ft 396 kts 224°
2026-04-27 04:30 20.29347 73.30147 34542 ft 399 kts 224°
2026-04-27 04:30 20.27238 73.28209 33815 ft 402 kts 224°
2026-04-27 04:30 20.25013 73.26357 32937 ft 411 kts 215°
2026-04-27 04:30 20.22389 73.25110 32421 ft 414 kts 204°
2026-04-27 04:31 20.19639 73.24199 31910 ft 413 kts 201°
2026-04-27 04:31 20.16922 73.23378 31364 ft 411 kts 201°
2026-04-27 04:31 20.14171 73.22552 30821 ft 409 kts 201°
2026-04-27 04:31 20.11446 73.21721 30269 ft 408 kts 201°
2026-04-27 04:32 20.08725 73.20881 29655 ft 407 kts 201°
2026-04-27 04:32 20.06007 73.20029 28994 ft 406 kts 202°
2026-04-27 04:32 20.03382 73.19001 28478 ft 399 kts 207°
2026-04-27 04:32 20.00838 73.17831 27946 ft 396 kts 208°
2026-04-27 04:33 19.98329 73.16634 27387 ft 394 kts 208°
2026-04-27 04:33 19.95823 73.15436 26829 ft 393 kts 207°
2026-04-27 04:33 19.93328 73.14250 26257 ft 393 kts 207°
2026-04-27 04:33 19.90835 73.13071 25688 ft 393 kts 207°
2026-04-27 04:34 19.88360 73.11903 25122 ft 393 kts 206°
2026-04-27 04:34 19.85856 73.10725 24547 ft 393 kts 206°
2026-04-27 04:34 19.83350 73.09547 23978 ft 394 kts 205°
2026-04-27 04:34 19.80838 73.08367 23376 ft 396 kts 205°
2026-04-27 04:35 19.78314 73.07183 22712 ft 396 kts 205°
2026-04-27 04:35 19.75793 73.06003 22106 ft 395 kts 205°
2026-04-27 04:35 19.73291 73.04833 21507 ft 393 kts 205°
2026-04-27 04:35 19.70785 73.03662 20919 ft 392 kts 204°
2026-04-27 04:36 19.68295 73.02500 20332 ft 391 kts 204°
2026-04-27 04:36 19.65807 73.01339 19738 ft 390 kts 204°
2026-04-27 04:36 19.63319 73.00179 19138 ft 390 kts 204°
2026-04-27 04:36 19.60866 72.99036 18541 ft 390 kts 204°
2026-04-27 04:37 19.58375 72.97876 18215 ft 382 kts 204°
2026-04-27 04:37 19.55988 72.96765 17687 ft 378 kts 204°
2026-04-27 04:37 19.53582 72.95645 17122 ft 376 kts 204°
2026-04-27 04:37 19.51204 72.94538 16624 ft 372 kts 204°
2026-04-27 04:38 19.48844 72.93440 16121 ft 368 kts 204°
2026-04-27 04:38 19.46507 72.92353 15614 ft 365 kts 203°
2026-04-27 04:38 19.44195 72.91278 15093 ft 362 kts 203°
2026-04-27 04:38 19.41894 72.90208 14593 ft 360 kts 203°
2026-04-27 04:39 19.39602 72.89144 14097 ft 357 kts 203°
2026-04-27 04:39 19.37336 72.88091 13609 ft 354 kts 203°
2026-04-27 04:39 19.35092 72.87049 13053 ft 351 kts 203°
2026-04-27 04:39 19.32853 72.86011 12506 ft 349 kts 203°
2026-04-27 04:40 19.30638 72.84984 11962 ft 347 kts 203°
2026-04-27 04:40 19.28455 72.83974 11429 ft 345 kts 203°
2026-04-27 04:40 19.26253 72.82956 10890 ft 344 kts 203°
2026-04-27 04:40 19.24082 72.81917 10469 ft 339 kts 208°
2026-04-27 04:41 19.22309 72.80368 10257 ft 326 kts 234°
2026-04-27 04:41 19.21444 72.78224 10079 ft 313 kts 262°
2026-04-27 04:41 19.21324 72.75973 9911 ft 302 kts 270°
2026-04-27 04:41 19.21372 72.73758 9497 ft 300 kts 272°
2026-04-27 04:42 19.21437 72.71562 9046 ft 299 kts 272°
2026-04-27 04:42 19.21487 72.69369 8603 ft 297 kts 272°
2026-04-27 04:42 19.21520 72.67211 8354 ft 290 kts 272°
2026-04-27 04:42 19.21540 72.65077 8003 ft 289 kts 271°
2026-04-27 04:43 19.21554 72.62963 7629 ft 287 kts 271°
2026-04-27 04:43 19.21563 72.60860 7248 ft 284 kts 272°
2026-04-27 04:43 19.21569 72.58804 6891 ft 282 kts 272°
2026-04-27 04:43 19.21573 72.56736 6516 ft 280 kts 272°
2026-04-27 04:44 19.21576 72.54684 6147 ft 278 kts 272°
2026-04-27 04:44 19.21578 72.52645 5756 ft 274 kts 272°
2026-04-27 04:44 19.21579 72.50661 5369 ft 266 kts 272°
2026-04-27 04:44 19.21507 72.48733 4996 ft 260 kts 260°
2026-04-27 04:45 19.20742 72.47025 4618 ft 259 kts 231°
2026-04-27 04:45 19.19303 72.45938 4270 ft 253 kts 201°
2026-04-27 04:45 19.17607 72.45611 3926 ft 244 kts 185°
2026-04-27 04:45 19.15963 72.45700 3566 ft 236 kts 167°
2026-04-27 04:46 19.14496 72.46389 3195 ft 230 kts 139°
2026-04-27 04:46 19.13562 72.47678 3041 ft 213 kts 111°
2026-04-27 04:46 19.13050 72.49090 3007 ft 202 kts 104°
2026-04-27 04:46 19.12626 72.50506 3007 ft 202 kts 103°
2026-04-27 04:47 19.12214 72.51928 3010 ft 202 kts 103°
2026-04-27 04:47 19.11801 72.53352 3010 ft 203 kts 104°
2026-04-27 04:47 19.11385 72.54776 3009 ft 203 kts 104°
2026-04-27 04:47 19.10965 72.56201 3011 ft 203 kts 104°
2026-04-27 04:48 19.10545 72.57621 3012 ft 203 kts 104°
2026-04-27 04:48 19.10122 72.59050 3013 ft 203 kts 104°
2026-04-27 04:48 19.09700 72.60473 3014 ft 203 kts 104°
2026-04-27 04:48 19.09277 72.61897 3013 ft 203 kts 104°
2026-04-27 04:49 19.08856 72.63318 3015 ft 202 kts 103°
2026-04-27 04:49 19.08592 72.64768 3013 ft 199 kts 90°
2026-04-27 04:49 19.08582 72.66226 3018 ft 198 kts 85°
2026-04-27 04:49 19.08609 72.67661 3009 ft 199 kts 85°
2026-04-27 04:50 19.08633 72.69144 2845 ft 198 kts 85°
2026-04-27 04:50 19.08655 72.70590 2582 ft 196 kts 85°
2026-04-27 04:50 19.08673 72.72031 2313 ft 196 kts 85°
2026-04-27 04:50 19.08691 72.73469 2059 ft 195 kts 85°
2026-04-27 04:51 19.08710 72.74868 1827 ft 186 kts 86°
2026-04-27 04:51 19.08728 72.76203 1585 ft 176 kts 86°
2026-04-27 04:51 19.08745 72.77452 1392 ft 161 kts 87°
2026-04-27 04:51 19.08762 72.78594 1165 ft 149 kts 87°
2026-04-27 04:52 19.08777 72.79675 979 ft 146 kts 87°
2026-04-27 04:52 19.08792 72.80749 812 ft 146 kts 88°
2026-04-27 04:52 19.08807 72.81828 629 ft 147 kts 90°
2026-04-27 04:52 19.08820 72.82912 439 ft 148 kts 90°
2026-04-27 04:53 19.08833 72.83999 264 ft 147 kts 90°
2026-04-27 04:53 19.08843 72.85059 68 ft 145 kts 89°
2026-04-27 04:53 19.08858 72.86070 33 ft 122 kts 89°
2026-04-27 04:53 19.08868 72.86656 36 ft 36 kts 89°
2026-04-27 04:54 19.08871 72.86824 39 ft 21 kts 86°
2026-04-27 04:54 19.08894 72.86970 38 ft 20 kts 73°
2026-04-27 04:54 19.08951 72.87096 37 ft 12 kts 59°
2026-04-27 04:54 19.08959 72.87109 37 ft 0 kts 57°
2026-04-27 04:55 19.08960 72.87112 37 ft 3 kts 57°
2026-04-27 04:55 19.09008 72.87152 37 ft 15 kts 358°
2026-04-27 04:55 19.09048 72.87075 37 ft 15 kts 269°
2026-04-27 04:56 19.09046 72.86931 37 ft 23 kts 269°
2026-04-27 04:56 19.09044 72.86752 38 ft 26 kts 269°
2026-04-27 04:56 19.09041 72.86549 38 ft 29 kts 269°
2026-04-27 04:56 19.09039 72.86364 38 ft 24 kts 269°
2026-04-27 04:57 19.09037 72.86183 36 ft 25 kts 270°
2026-04-27 04:57 19.09035 72.86000 35 ft 25 kts 269°
2026-04-27 04:57 19.09031 72.85813 34 ft 22 kts 269°
2026-04-27 04:57 19.09058 72.85726 34 ft 9 kts 295°
2026-04-27 04:58 19.09072 72.85662 34 ft 9 kts 281°
2026-04-27 04:58 19.09088 72.85601 33 ft 8 kts 287°
2026-04-27 04:58 19.09111 72.85564 34 ft 2 kts 306°
2026-04-27 04:58 19.09113 72.85559 34 ft 0 kts 296°
2026-04-27 04:59 19.09120 72.85540 34 ft 5 kts 293°
2026-04-27 04:59 19.09137 72.85526 33 ft 1 kts 351°
2026-04-27 04:59 19.09140 72.85525 34 ft 2 kts 353°
2026-04-27 04:59 19.09168 72.85525 35 ft 3 kts
2026-04-27 05:00 19.09169 72.85525 35 ft 0 kts